ONEWEB-0261, 48979

Orbit data source: Space-Track

ONEWEB-0261, 48979 is a payload satellite owned by One Web (NAA) (UK) in LEO that was launched on Thu, 01 Jul 2021 UTC via a SOYUZ-2-1B launch vehicle from the Vostochny Cosmodrome (VOSTO). Payload-class satellites include a variety of spacecraft equipped with specific instruments for various scientific and technological missions. These include communications satellites like Starlink; space stations such as the ISS; scientific satellites like the Hubble; Earth observation satellites from companies like Planet Labs, Umbra, and HawkEye 360; GPS; miniature CubeSats for education and research; and military/defense satellites.

Loading next visibility...
Identifier
48979, 2021-060N
Orbit
LEO
Country
Flag of UKUK
Related business
Manufacturer
One Web
Mission
Operational Commercial Communications
Bus & Motor
ARROW, Unknown motor
Mass
148 kg wet, ~140 kg dry
Launch date (UTC)
2021-07-01 (4 years ago)
Launch vehicle
SOYUZ-2-1B
Launch site
Vostochny Cosmodrome (VOSTO)
Object type
Payload
Rocket body
Debris
Shape & HBR
Trap Box + 2 Pan, 6.7 m
Radar Cross Section
3.464 m², Large (>1 m²)

Expand to show TLE details & history
Last TLE update: 18 hours ago

TLE from 18 hours ago
0 ONEWEB-0261
1 48979U 21060N   25348.84259605 -.00000006  00000-0 -49838-4 0  9991
2 48979  87.9035 265.5023 0002080  68.5651 291.5701 13.16593612215409
Epoch: 2025-12-14T20:13Z
TLE epoch observation values (Epoch: 2025-12-14T20:13:20.298Z)
Latitude
-0.0001°
Longitude
-121.58199°
Altitude
1,200.077 km
Speed
7.254 km/s
True Right ascension
17h 42m 00s
True Declination
0° 00' 00"
Sunlit
Object was in daylight at epoch
Visualization orbit readout
Latitude
Unknown
Longitude
Unknown
Altitude
Unknown
Speed
Unknown
Apparent Right ascension
Unknown
Apparent Declination
Unknown
Sunlit
N/A
Visualization observer readout
Local Sidereal Time
13:18:21
Azimuth
Unknown
Elevation
Unknown
Doppler factor
Unknown
Orbital elements
Apogee altitude
1,196.445 km
Perigee altitude
1,193.294 km
Semi-major axis
7,573.007 km
Eccentricity
0.00021
Inclination
87.9035°
RAAN
265.5023°
Arg. of periapsis
68.5651°
True anomaly
291.54793°
Mean anomaly
291.5701°
Eccentric anomaly
291.55902°
Mean motion
3.29337 °/min
Orbital period
109.31 mins
BSTAR
-0.000049838
Loading maneuver chart data...
Computing Atmospheric mass density...
Loading historical data...
Loading historical data...
Loading historical data...
Loading historical data...
Loading historical data...
Loading historical data...
Loading historical data...

Documentation

Showing up to 5 results
|